Hyannis, MA

2:52 AM EDT on September 27, 2016 (GMT -0400)
Barnstable Municipal-Boardman-Polando Field

Weather History for KHYA - February, 2011

Change the Weather History Date:

Wednesday, February 23, 2011

  Actual Average Record
Temperature  
Mean Temperature 28 °F -  
Max Temperature 34 °F 43 °F 57 °F (2012)
Min Temperature 19 °F 27 °F 2 °F (1959)
Degree Days  
Heating Degree Days 38    
Moisture  
Dew Point 12 °F    
Average Humidity 52    
Maximum Humidity 71    
Minimum Humidity 31    
Precipitation  
Precipitation 0.00 in - - ()
Sea Level Pressure  
Sea Level Pressure 30.22 in    
Wind  
Wind Speed 10 mph (NNW)    
Max Wind Speed 17 mph    
Max Gust Speed 23 mph    
Visibility 10 miles    
Events      
Averages and records for this station are not official NWS values.
T = Trace of Precipitation, MM = Missing Value Source: NWS Daily Summary

Daily Weather History Graph

Daily Weather History Graph

Search for Another Location

Airport or City:

Trip Planner

Search our weather history database for the weather conditions in past years. The results will help you decide how hot, cold, wet, or windy it might be!

Date:

Astronomy

Feb. 23, 2011 Rise Set
Actual Time 6:25 AM EST 5:24 PM EST
Civil Twilight 5:57 AM EST 5:52 PM EST
Nautical Twilight 5:25 AM EST 6:24 PM EST
Astronomical Twilight 4:53 AM EST 6:56 PM EST
Moon No Moon Rise 9:04 AM EST (2/23)
Length of Visible Light 11h 54m
Length of Day
10h 58m
Waning Gibbous, 64% of the Moon is Illuminated
Feb 23
Waning Gibbous
Feb 24
Last Quarter
Mar 4
New
Mar 12
First Quarter
Mar 19
Full

Hourly Weather History & Observations

Time (EST) Temp. Windchill Dew Point Humidity Pressure Visibility Wind Dir Wind Speed Gust Speed Precip Events Conditions
12:56 AM 28.9 °F 18.6 °F 16.0 °F 58% 30.15 in 10.0 mi North 12.7 mph 17.3 mph N/A   Clear
1:56 AM 28.9 °F 20.4 °F 16.0 °F 58% 30.16 in 10.0 mi NNW 9.2 mph 17.3 mph N/A   Clear
2:56 AM 27.0 °F 18.0 °F 16.0 °F 63% 30.16 in 10.0 mi NNW 9.2 mph - N/A   Clear
3:56 AM 25.0 °F 17.1 °F 12.0 °F 58% 30.17 in 10.0 mi NW 6.9 mph - N/A   Clear
4:56 AM 25.0 °F 15.5 °F 10.9 °F 55% 30.18 in 10.0 mi NNW 9.2 mph 18.4 mph N/A   Clear
5:56 AM 24.1 °F 14.4 °F 10.9 °F 57% 30.19 in 10.0 mi NNW 9.2 mph - N/A   Clear
6:56 AM 25.0 °F 16.3 °F 12.0 °F 58% 30.21 in 10.0 mi NNW 8.1 mph - N/A   Clear
7:56 AM 25.0 °F 15.5 °F 9.0 °F 51% 30.22 in 10.0 mi NW 9.2 mph - N/A   Clear
8:56 AM 28.9 °F 19.2 °F 12.0 °F 49% 30.23 in 10.0 mi NNW 11.5 mph 19.6 mph N/A   Clear
9:56 AM 30.9 °F 20.2 °F 12.0 °F 46% 30.23 in 10.0 mi North 15.0 mph 23.0 mph N/A   Clear
10:56 AM 30.9 °F 19.4 °F 12.0 °F 46% 30.23 in 10.0 mi NNW 17.3 mph 23.0 mph N/A   Clear
11:56 AM 33.1 °F 22.6 °F 12.9 °F 43% 30.23 in 10.0 mi North 16.1 mph 21.9 mph N/A   Clear
12:56 PM 33.1 °F 23.4 °F 12.0 °F 42% 30.22 in 10.0 mi North 13.8 mph 19.6 mph N/A   Clear
1:56 PM 34.0 °F 25.0 °F 10.0 °F 37% 30.21 in 10.0 mi North 12.7 mph - N/A   Clear
2:56 PM 34.0 °F 26.0 °F 10.0 °F 37% 30.21 in 10.0 mi North 10.4 mph - N/A   Clear
3:56 PM 34.0 °F 26.6 °F 7.0 °F 32% 30.21 in 10.0 mi North 9.2 mph - N/A   Clear
4:56 PM 33.1 °F - 5.0 °F 31% 30.22 in 10.0 mi Calm Calm - N/A   Clear
5:56 PM 28.9 °F 22.8 °F 9.0 °F 43% 30.23 in 10.0 mi West 5.8 mph - N/A   Clear
6:56 PM 25.0 °F 19.3 °F 15.1 °F 66% 30.25 in 10.0 mi WSW 4.6 mph - N/A   Clear
7:56 PM 28.0 °F 21.7 °F 15.1 °F 58% 30.25 in 10.0 mi WSW 5.8 mph - N/A   Clear
8:56 PM 28.9 °F 25.2 °F 17.1 °F 61% 30.25 in 10.0 mi West 3.5 mph - N/A   Clear
9:56 PM 21.0 °F - 12.9 °F 71% 30.25 in 10.0 mi Calm Calm - N/A   Clear
10:56 PM 24.1 °F 18.2 °F 14.0 °F 65% 30.26 in 10.0 mi WNW 4.6 mph - N/A   Clear
11:56 PM 19.0 °F 12.3 °F 10.9 °F 71% 30.26 in 10.0 mi North 4.6 mph - N/A   Clear